Location: Bjelajci
(45.0103°N, 16.1758°E)
Time: 19:36:03
(UTC+00:00)

Cosmos 1833 Rocket - Pass Details

Date: 14 July 2020
Orbit: 832 x 840 km, 71.0° (Epoch: 05 August)

Event Time Altitude Azimuth Distance (km) Brightness Sun altitude
Exits shadow 02:26:43 - 254° (WSW) 2,665 4.7 -8.6°
Reaches altitude 10° 02:27:28 10° 258° (WSW) 2,441 4.6 -8.5°
Maximum altitude 02:31:54 24° 311° (NW) 1,678 4.2 -7.9°
Drops below altitude 10° 02:36:23 10° 4° (N) 2,455 5.8 -7.3°
Sets 02:39:20 0° 19° (NNE) 3,394 7.0 -6.9°
